Location: Celina Division
(33.3022°N, 96.7580°W)
Time: 11:52:38
(UTC+00:00)

CZ-4B R/B - Pass Details

Date: 08 December 2021
Orbit: 378 x 441 km, 97.6° (Epoch: 23 January)

Event Time Altitude Azimuth Distance (km) Brightness Sun altitude
Rises 12:27:55 0° 136° (SE) 2,420 6.4 -10.5°
Reaches altitude 10° 12:30:22 10° 117° (ESE) 1,546 5.7 -10.0°
Maximum altitude 12:32:43 18° 72° (ENE) 1,134 4.2 -9.6°
Drops below altitude 10° 12:35:02 10° 27° (NNE) 1,533 4.2 -9.1°
Sets 12:37:26 0° 8° (N) 2,390 4.9 -8.7°
